Location: Allentsteig
(48.6833°N, 15.3167°E)
Time: 01:27:14
(UTC+00:00)

NOSS 2-2 (E) - Pass Details

Date: 18 September 2020
Orbit: 468 x 1739 km, 63.3° (Epoch: 26 October)

Event Time Altitude Azimuth Distance (km) Brightness Sun altitude
Rises 19:13:04 0° 239° (WSW) 2,500 7.1 -21.1°
Reaches altitude 10° 19:15:08 10° 247° (WSW) 1,650 6.2 -21.4°
Maximum altitude 19:18:33 43° 321° (NW) 740 4.4 -21.9°
Drops below altitude 10° 19:22:34 10° 33° (NNE) 1,944 6.1 -22.5°
Sets 19:25:12 0° 41° (NE) 3,017 7.0 -22.9°
